Home   Weather   Kenema   Past weeks

Flag for Sierra Leone Past Weather in Kenema, Sierra Leone — Yesterday and Last 2 Weeks

Now
77 °F

Passing clouds.


Feels Like: 78 °F
Forecast: 72 / 94 °F
Wind: No wind

Location: Roberts Field

Current Time: Apr 30, 2017 at 7:10:11 am

Latest Report: Apr 30, 2017 at 6:30 am


Visibility: N/A

Pressure: 29.89 "Hg

Humidity: 94%

Dew Point: 75 °F

Location of KenemaLocation

Past Weather in Kenema — Graph

°F

Kenema Temperature Yesterday

Maximum temperature yesterday: 90 °F (at 1:30 pm)
Minimum temperature yesterday: 73 °F (at 1:00 am)
Average temperature yesterday: 81 °F

High & Low Weather Summary for the Past Weeks

 TemperatureHumidityPressure
High93 °F (Apr 15, 1:30 pm)100% (Apr 21, 5:00 am)29.95 "Hg (Apr 21, 5:00 am)
Low73 °F (Apr 20, 5:30 am)59% (Apr 15, 1:30 pm)29.74 "Hg (Apr 16, 4:00 pm)
Average83 °F84%29.85 "Hg
* Reported Apr 15 5:30 am — Apr 30 5:00 am, Kenema, Weather by CustomWeather, © 2017

Note: Actual official high and low records may vary slightly from our data, if they occured in-between our weather recording intervals... More about our weather records

Advertising

Kenema Weather History for the Previous 24 Hours

Scroll right to see more
 ConditionsComfort  
Time TempWeatherWind HumidityBarometerVisibility
5:00 am
Sun, Apr 30
77 °FPassing clouds.No wind94%29.86 "Hg5 mi
4:00 am77 °FPassing clouds.12 mph94%29.86 "Hg5 mi
1:30 am79 °FPassing clouds.No wind94%29.86 "HgN/A
11:30 pm
Sat, Apr 29
79 °FPassing clouds.No wind94%29.92 "HgN/A
11:00 pm81 °FPassing clouds.No wind89%29.92 "HgN/A
10:30 pm81 °FPassing clouds.No wind89%29.92 "HgN/A
10:00 pm81 °FPassing clouds.No wind89%29.92 "HgN/A
9:00 pm81 °FPassing clouds.No wind89%29.92 "HgN/A
8:30 pm81 °FPassing clouds.No wind89%29.92 "HgN/A
7:30 pm81 °FScattered clouds.No wind89%29.89 "HgN/A
7:00 pm82 °FThunderstorms. Scattered clouds.No wind84%29.86 "HgN/A
6:30 pm84 °FThunderstorms. Scattered clouds.6 mph79%29.86 "HgN/A
6:00 pm84 °FThunderstorms. Scattered clouds.No wind79%29.86 "HgN/A
5:30 pm86 °FThunderstorms. Scattered clouds.7 mph75%29.83 "HgN/A
5:00 pm86 °FThunderstorms. Scattered clouds.6 mph75%29.83 "HgN/A
4:00 pm88 °FPassing clouds.10 mph70%29.83 "HgN/A
3:30 pm88 °FScattered clouds.8 mph66%29.83 "HgN/A
3:00 pm90 °FPartly sunny.6 mph67%29.86 "HgN/A
2:30 pm90 °FPartly sunny.No wind67%29.86 "HgN/A
2:00 pm90 °FPartly sunny.No wind67%29.86 "HgN/A
1:30 pm90 °FPartly sunny.No wind67%29.86 "HgN/A
12:30 pm88 °FPartly sunny.No wind66%29.89 "HgN/A
12:00 pm86 °FPartly sunny.No wind66%29.92 "HgN/A
11:30 am84 °FPartly sunny.No wind74%29.92 "HgN/A
11:00 am81 °FPartly sunny.No wind84%29.92 "HgN/A
10:30 am79 °FPartly sunny.No wind89%29.95 "HgN/A
10:00 am77 °FPartly sunny.3 mph94%29.95 "HgN/A
9:30 am75 °FPartly sunny.3 mph94%29.95 "HgN/A
9:00 am75 °FPartly sunny.No wind94%29.92 "HgN/A
8:30 am75 °FPartly sunny.No wind94%29.92 "HgN/A
8:00 am73 °FPartly sunny.No wind100%29.92 "HgN/A
7:30 am73 °FPartly sunny.No wind94%29.89 "HgN/A
7:00 am73 °FPassing clouds.3 mph94%29.89 "HgN/A
Weather by CustomWeather, © 2017

See weather overviewHow to use our weather pages